This is the latest recevied weather packets stored in our database for station/object JH5EWP-13. If no packets are shown the sender has not sent any weather packets the latest 10 day(s).
| Time | Temp. | Humidity | Pressure | Rain* | Wind** | Luminosity | Snow |
|---|---|---|---|---|---|---|---|
| 1777712926 | 22.78° C | 30% | 1002.4 hPa | 0 mm | - | - | - |
| 1777712026 | 22.78° C | 28% | 1002.3 hPa | 0 mm | - | - | - |
| 1777711126 | 23.33° C | 24% | 1002.3 hPa | 0 mm | - | - | - |
| 1777710226 | 23.89° C | 22% | 1002.4 hPa | 0 mm | - | - | - |
| 1777709325 | 25° C | 24% | 1002.4 hPa | 0 mm | - | - | - |
| 1777708425 | 24.44° C | 25% | 1002.4 hPa | 0 mm | - | - | - |
| 1777707525 | 23.89° C | 23% | 1002.4 hPa | 0 mm | - | - | - |
| 1777706625 | 23.89° C | 26% | 1002.4 hPa | 0 mm | - | - | - |
| 1777705725 | 22.78° C | 30% | 1002.4 hPa | 0 mm | - | - | - |
| 1777704825 | 22.78° C | 31% | 1002.4 hPa | 0 mm | - | - | - |
| 1777703926 | 22.78° C | 30% | 1002.4 hPa | 0 mm | - | - | - |
| 1777703025 | 22.78° C | 30% | 1002.6 hPa | 0 mm | - | - | - |
| 1777702126 | 23.33° C | 30% | 1002.6 hPa | 0 mm | - | - | - |
| 1777701225 | 23.33° C | 30% | 1002.7 hPa | 0 mm | - | - | - |
| 1777700326 | 22.78° C | 31% | 1002.8 hPa | 0 mm | - | - | - |
| 1777699426 | 22.78° C | 31% | 1002.7 hPa | 0 mm | - | - | - |
| 1777698526 | 22.22° C | 31% | 1002.9 hPa | 0 mm | - | - | - |
| 1777697626 | 22.78° C | 29% | 1003 hPa | 0 mm | - | - | - |
| 1777696726 | 22.78° C | 28% | 1003 hPa | 0 mm | - | - | - |
| 1777695826 | 23.33° C | 26% | 1003 hPa | 0 mm | - | - | - |
| 1777694925 | 23.89° C | 26% | 1003.4 hPa | 0 mm | - | - | - |
| 1777694025 | 23.33° C | 28% | 1003.4 hPa | 0 mm | - | - | - |
| 1777693125 | 23.33° C | 29% | 1003.6 hPa | 0 mm | - | - | - |
| 1777692225 | 22.78° C | 30% | 1003.9 hPa | 0 mm | - | - | - |
| 1777691325 | 22.78° C | 31% | 1003.9 hPa | 0 mm | - | - | - |
* Rain latest hour (hover to see other rain measurements)
** Current wind speed in m/s (hover to see current wind gust speed)